"2016-02-15 00:00:00",1375131,19.61,323.8,8.29,1.701,13.7,102.9773,6.899,8.12,27.25,0,110.2,13.11,7.68,285.8
"2016-02-15 00:00:30",1375132,19.51,325.2,7.975,1.41,13.6,102.9764,6.897,8.11,26.81,0,110.2,13.11,7.67,287.2
"2016-02-15 00:01:00",1375133,18.56,324.1,8.14,1.457,13.62,102.9773,6.899,8.12,26.82,0,110.2,13.11,7.68,286.1
"2016-02-15 00:01:30",1375134,19.51,328.6,7.829,1.595,14.11,102.9775,6.9,8.12,26.72,0,110.1,13.11,7.68,290.6
"2016-02-15 00:02:00",1375135,20.24,321.1,7.003,1.472,14.09,102.9793,6.905,8.12,26.21,0,110.2,13.11,7.68,283.1
"2016-02-15 00:02:30",1375136,20.77,327.2,6.987,1.779,13.97,102.9878,6.926,8.16,26.47,0,110.2,13.1,7.70,289.2
"2016-02-15 00:03:00",1375137,16.71,328.3,7.165,1.901,13.65,102.9985,6.954,8.11,26.56,0,110.2,13.1,7.73,290.3
"2016-02-15 00:03:30",1375138,17.38,317.4,7.685,2.108,13.7,103.0072,6.976,8.12,26.54,0,110.1,13.11,7.75,279.4
"2016-02-15 00:04:00",1375139,15.71,329.1,7.153,1.475,13.81,103.0138,6.993,8.14,26.71,0,110.2,13.1,7.77,291.1
"2016-02-15 00:04:30",1375140,14.19,326,8.04,1.376,13.48,103.0146,6.995,8.16,26.84,0,110.2,13.1,7.77,288.0
"2016-02-15 00:05:00",1375141,15.84,324.8,9.57,1.731,13.82,103.0143,6.994,8.17,27.09,0,110.2,13.1,7.77,286.8
"2016-02-15 00:05:30",1375142,17.37,324.6,7.987,1.511,13.58,103.0143,6.994,8.19,26.9,0,110.2,13.1,7.77,286.6
"2016-02-15 00:06:00",1375143,16.62,326.5,7.088,2.01,13.28,103.0149,6.996,8.18,26.61,0,110.2,13.11,7.77,288.5
"2016-02-15 00:06:30",1375144,12.98,322.7,9.7,1.669,13.7,103.0143,6.994,8.17,27.09,0,110.2,13.11,7.77,284.7
"2016-02-15 00:07:00",1375145,12.59,327.8,7.138,1.707,13.54,103.0135,6.992,8.19,27.43,0,110.2,13.11,7.77,289.8
"2016-02-15 00:07:30",1375146,12.38,331.5,7.978,1.662,13.24,103.0076,6.977,8.14,27.54,0,110.2,13.11,7.75,293.5
"2016-02-15 00:08:00",1375147,11.33,334.9,7.877,1.517,13.36,102.9991,6.955,8.18,27.7,0,110.2,13.11,7.73,296.9
"2016-02-15 00:08:30",1375148,13.54,333.3,6.724,1.487,13.41,102.9875,6.926,8.18,27.05,0,110.2,13.11,7.70,295.3
"2016-02-15 00:09:00",1375149,13.51,334.5,7.71,1.386,13.45,102.9816,6.911,8.14,26.65,0,110.2,13.11,7.69,296.5
"2016-02-15 00:09:30",1375150,13.04,334.6,7.584,1.404,13.53,102.981,6.909,8.16,26.68,0,110.2,13.12,7.69,296.6
"2016-02-15 00:10:00",1375151,13.53,345.4,7.417,1.405,13.23,102.981,6.909,8.14,27.19,0,110.2,13.12,7.69,307.4
"2016-02-15 00:10:30",1375152,13.37,337.1,9.81,1.646,13.14,102.981,6.909,8.13,27.51,0,110.2,13.12,7.69,299.1
"2016-02-15 00:11:00",1375153,15.68,339.1,7.4,1.83,13.74,102.9748,6.893,8.12,27.06,0,110.2,13.12,7.67,301.1
"2016-02-15 00:11:30",1375154,14.48,331.9,6.851,1.452,13.63,102.9652,6.869,8.14,26.89,0,110.2,13.12,7.64,293.9
"2016-02-15 00:12:00",1375155,14.75,322.8,6.616,1.412,13.53,102.957,6.848,8.1,27.32,0,110.2,13.12,7.62,284.8
"2016-02-15 00:12:30",1375156,12.74,331.2,7.774,1.381,13.15,102.9474,6.823,8.09,27.37,0,110.2,13.12,7.60,293.2
"2016-02-15 00:13:00",1375157,13.19,336,7.995,1.48,13.17,102.9471,6.823,8.09,27.49,0,110.2,13.12,7.60,298.0
"2016-02-15 00:13:30",1375158,11.23,328.9,9.32,2.085,13.46,102.9471,6.823,8.09,27.47,0,110.1,13.12,7.60,290.9
"2016-02-15 00:14:00",1375159,14.46,335.7,8.16,1.51,13.54,102.9469,6.822,8.07,27.25,0,110.1,13.12,7.60,297.7
"2016-02-15 00:14:30",1375160,14.25,333.7,6.9,1.354,13.34,102.9407,6.806,8.07,27.22,0,110.1,13.12,7.58,295.7
"2016-02-15 00:15:00",1375161,14.61,335.1,9.06,1.645,13.32,102.9316,6.783,8.04,27.31,0,110.2,13.13,7.56,297.1
"2016-02-15 00:15:30",1375162,13.56,332.9,6.85,1.623,13.17,102.9274,6.772,8.03,27.24,0,110.2,13.13,7.55,294.9
"2016-02-15 00:16:00",1375163,13.24,336.6,6.947,1.424,13.33,102.9172,6.746,8.01,27.49,0,110.2,13.13,7.52,298.6
"2016-02-15 00:16:30",1375164,13.63,338.2,6.912,1.283,13.42,102.9136,6.737,8.03,27.71,0,110.1,13.13,7.51,300.2
"2016-02-15 00:17:00",1375165,12.6,330.6,7.533,1.376,13.41,102.9133,6.736,8.02,27.75,0,110.2,13.13,7.51,292.6
"2016-02-15 00:17:30",1375166,13.66,329.4,8.73,1.368,12.79,102.9133,6.736,8.01,27.84,0,110.1,13.13,7.51,291.4
"2016-02-15 00:18:00",1375167,16.34,324.3,6.67,1.372,13.31,102.9133,6.736,8.01,27.84,0,110.1,13.13,7.51,286.3
"2016-02-15 00:18:30",1375168,16.88,329.1,7.641,1.398,13.33,102.913,6.735,8.02,28.02,0,110.1,13.13,7.51,291.1
"2016-02-15 00:19:00",1375169,16.59,338.2,8.13,1.622,13.43,102.9076,6.722,7.994,28.19,0,110.1,13.12,7.50,300.2
"2016-02-15 00:19:30",1375170,16.61,336.4,8.33,1.666,13.52,102.8955,6.691,7.966,28.16,0,110.2,13.12,7.47,298.4
"2016-02-15 00:20:00",1375171,18.76,330.7,7.115,1.795,13.56,102.887,6.669,7.986,28.1,0,110.1,13.13,7.44,292.7
"2016-02-15 00:20:30",1375172,18.21,337.1,6.94,1.565,13.53,102.8811,6.654,7.964,28.02,0,110.1,13.13,7.43,299.1
"2016-02-15 00:21:00",1375173,18.18,336,6.791,1.407,13.82,102.8794,6.649,7.939,27.99,0,110.1,13.13,7.42,298.0
"2016-02-15 00:21:30",1375174,19.23,332.2,7.311,1.516,13.54,102.8797,6.65,7.953,28.11,0,110.1,13.13,7.43,294.2
"2016-02-15 00:22:00",1375175,20.6,328.6,8.36,1.33,13.44,102.8788,6.648,7.915,28.27,0,110.1,13.13,7.42,290.6
"2016-02-15 00:22:30",1375176,17.36,329.6,6.995,1.559,13.54,102.8724,6.631,7.922,28.64,0,110.1,13.13,7.41,291.6
"2016-02-15 00:23:00",1375177,16.48,331.6,7.314,1.673,13.6,102.856,6.59,7.915,28.91,0,110.1,13.13,7.36,293.6
"2016-02-15 00:23:30",1375178,18.31,326.1,6.445,1.688,13.65,102.849,6.572,7.906,28.86,0,110.1,13.13,7.35,288.1
"2016-02-15 00:24:00",1375179,18.76,330.1,7.363,1.475,13.51,102.851,6.577,7.876,29,0,110.1,13.14,7.35,292.1
"2016-02-15 00:24:30",1375180,17.72,331.3,6.767,1.575,13.31,102.8499,6.574,7.84,29.02,0,110.1,13.14,7.35,293.3
"2016-02-15 00:25:00",1375181,18.6,329.5,6.729,1.511,13.57,102.8421,6.554,7.826,28.78,0,110.1,13.14,7.33,291.5
"2016-02-15 00:25:30",1375182,17.8,329.6,6.955,1.484,13.92,102.8365,6.54,7.811,28.55,0,110.1,13.14,7.31,291.6
"2016-02-15 00:26:00",1375183,18.5,326.7,6.349,1.343,13.83,102.8278,6.517,7.802,28.46,0,110.1,13.15,7.29,288.7
"2016-02-15 00:26:30",1375184,18.62,330.9,6.902,1.298,13.77,102.8244,6.509,7.823,28.75,0,110.1,13.15,7.28,292.9
"2016-02-15 00:27:00",1375185,18.53,326.7,7.205,1.408,13.48,102.827,6.516,7.784,28.82,0,110.1,13.15,7.29,288.7
"2016-02-15 00:27:30",1375186,17.47,325.7,7.119,1.659,13.64,102.8274,6.516,7.755,28.84,0,110.1,13.15,7.29,287.7
"2016-02-15 00:28:00",1375187,14.22,335.1,8.61,1.688,13.83,102.8197,6.497,7.764,28.77,0,110.1,13.15,7.27,297.1
"2016-02-15 00:28:30",1375188,13.96,332.9,9.62,1.647,13.37,102.8135,6.481,7.763,28.77,0,110.1,13.15,7.26,294.9
"2016-02-15 00:29:00",1375189,15.48,327.3,6.649,1.474,13.63,102.8124,6.478,7.751,29.02,0,110.1,13.15,7.25,289.3
"2016-02-15 00:29:30",1375190,15.74,333.1,9.88,1.647,13.28,102.808,6.467,7.74,29.43,0,110.1,13.15,7.24,295.1
"2016-02-15 00:30:00",1375191,14.85,331.2,8.66,1.95,13.05,102.8013,6.45,7.729,29.22,0,110.1,13.15,7.22,293.2
"2016-02-15 00:30:30",1375192,15.48,327.6,7.1,1.314,13.45,102.8021,6.452,7.72,29.53,0,110.1,13.15,7.23,289.6
"2016-02-15 00:31:00",1375193,14.14,335.7,8.61,1.552,13.42,102.8039,6.456,7.716,29.57,0,110.1,13.15,7.23,297.7
"2016-02-15 00:31:30",1375194,11.94,338,6.194,1.462,13.2,102.8036,6.456,7.657,29.26,0,110.1,13.15,7.23,300.0
"2016-02-15 00:32:00",1375195,10.95,338.3,11.52,1.462,13.27,102.8014,6.45,7.706,29.01,0,110.1,13.15,7.22,300.3
"2016-02-15 00:32:30",1375196,10.67,329.5,7.43,1.464,12.91,102.793,6.429,7.69,29.37,0,110.1,13.15,7.20,291.5
"2016-02-15 00:33:00",1375197,10.76,336.7,8.65,1.551,12.81,102.7896,6.42,7.654,29.3,0,110.1,13.15,7.19,298.7
"2016-02-15 00:33:30",1375198,9.47,336.9,8.92,1.783,11.38,102.78,6.395,7.533,28.89,0,110.1,13.15,7.17,298.9
"2016-02-15 00:34:00",1375199,8.47,329.4,3.267,0.516,8.99,102.7778,6.39,7.379,28.82,0,110.1,13.2,7.16,291.4
"2016-02-15 00:34:30",1375200,10.01,335.6,7.789,1.044,10.11,102.7784,6.391,7.433,29.01,0,110.1,13.16,7.17,297.6
"2016-02-15 00:35:00",1375201,11.6,343.6,7.513,1.543,13.46,102.7767,6.387,7.641,29.16,0,110.1,13.15,7.16,305.6
"2016-02-15 00:35:30",1375202,11.11,334.8,8.18,1.303,13.51,102.7787,6.392,7.632,29.27,0,110.1,13.15,7.17,296.8
"2016-02-15 00:36:00",1375203,11.35,325.6,7.606,1.518,13.65,102.7779,6.39,7.626,29.41,0,110.1,13.15,7.16,287.6
"2016-02-15 00:36:30",1375204,10.38,327.8,7.328,1.298,13.22,102.7697,6.369,7.656,29.5,0,110.1,13.15,7.14,289.8
"2016-02-15 00:37:00",1375205,10.65,324.6,7.173,1.311,13.27,102.7626,6.351,7.616,29.52,0,110.1,13.15,7.13,286.6
"2016-02-15 00:37:30",1375206,10.68,325.3,8.55,1.742,13.06,102.7575,6.338,7.623,29.51,0,110.1,13.15,7.11,287.3
"2016-02-15 00:38:00",1375207,9.85,329.9,7.879,1.859,12.82,102.7488,6.316,7.598,29.62,0,110.1,13.15,7.09,291.9
"2016-02-15 00:38:30",1375208,8.86,332.5,6.24,1.208,10.74,102.7448,6.306,7.433,29.26,0,110.1,13.15,7.08,294.5
"2016-02-15 00:39:00",1375209,8.72,327.2,5.516,0.977,8.94,102.7448,6.306,7.323,29.27,0,110.1,13.2,7.08,289.2
"2016-02-15 00:39:30",1375210,10.08,333.6,5.892,1.623,9.49,102.7448,6.306,7.309,29.4,0,110.1,13.16,7.08,295.6
"2016-02-15 00:40:00",1375211,11.56,339.2,7.701,1.396,13.21,102.7448,6.306,7.571,29.58,0,110.1,13.16,7.08,301.2
"2016-02-15 00:40:30",1375212,12.02,345.7,7.354,1.465,14.07,102.7448,6.306,7.567,29.41,0,110.1,13.16,7.08,307.7
"2016-02-15 00:41:00",1375213,12.35,345.3,7.184,1.501,13.57,102.7423,6.299,7.54,29.23,0,110.1,13.16,7.07,307.3
"2016-02-15 00:41:30",1375214,10.27,334.8,7.315,1.425,13.33,102.7378,6.288,7.575,29.54,0,110.1,13.16,7.06,296.8
"2016-02-15 00:42:00",1375215,9.97,335.3,6.886,1.37,12.69,102.7327,6.275,7.529,29.58,0,110.1,13.16,7.05,297.3
"2016-02-15 00:42:30",1375216,9.26,332.2,8.58,1.333,10.83,102.7282,6.263,7.458,29.46,0,110.1,13.16,7.04,294.2
"2016-02-15 00:43:00",1375217,9.07,330.3,4.386,0.446,9.18,102.7276,6.262,7.272,29.15,0,110.1,13.21,7.04,292.3
"2016-02-15 00:43:30",1375218,10.22,338.5,5.622,1.325,10.81,102.7203,6.243,7.366,29.29,0,110.1,13.16,7.02,300.5
"2016-02-15 00:44:00",1375219,9.51,338.4,8.09,1.42,12.78,102.7149,6.229,7.552,29.53,0,110.1,13.17,7.00,300.4
"2016-02-15 00:44:30",1375220,10.8,349.2,9.66,1.677,13.79,102.7121,6.222,7.527,29.41,0,110.1,13.17,7.00,311.2
"2016-02-15 00:45:00",1375221,9.75,335.1,8.09,1.461,13.18,102.7109,6.219,7.5,29.44,0,110.1,13.17,6.99,297.1
"2016-02-15 00:45:30",1375222,9.06,338.2,5.922,1.584,13.03,102.7112,6.22,7.511,29.5,0,110.1,13.17,6.99,300.2
"2016-02-15 00:46:00",1375223,10.59,325.9,6.832,1.329,9.83,102.7121,6.222,7.228,29.22,0,110.1,13.17,7.00,287.9
"2016-02-15 00:46:30",1375224,11.25,335.9,9.76,1.344,11.23,102.7124,6.223,7.4,29.24,0,110.1,13.17,7.00,297.9
"2016-02-15 00:47:00",1375225,12.75,332,8.98,1.624,12.7,102.7121,6.222,7.434,29.18,0,110,13.17,7.00,294.0
"2016-02-15 00:47:30",1375226,12.28,329.6,8.57,1.395,13.73,102.7135,6.226,7.498,29.3,0,110.1,13.17,7.00,291.6
"2016-02-15 00:48:00",1375227,11.34,327.6,6.684,1.43,13.47,102.7162,6.232,7.504,29.59,0,110.1,13.17,7.01,289.6
"2016-02-15 00:48:30",1375228,12.44,328.1,6.582,1.231,13.56,102.7205,6.243,7.508,29.41,0,110.1,13.17,7.02,290.1
"2016-02-15 00:49:00",1375229,12.04,334.2,11.34,1.599,13.79,102.7199,6.242,7.509,29.42,0,110.1,13.17,7.02,296.2
"2016-02-15 00:49:30",1375230,10.47,340.5,7.924,1.497,13.08,102.7208,6.244,7.478,29.36,0,110.1,13.17,7.02,302.5
"2016-02-15 00:50:00",1375231,10.63,336.8,8.78,1.45,12.83,102.724,6.252,7.459,29.42,0,110,13.17,7.03,298.8
"2016-02-15 00:50:30",1375232,9.28,335.2,4.381,1.117,9.85,102.7209,6.244,7.236,29.25,0,110,13.17,7.02,297.2
"2016-02-15 00:51:00",1375233,10.26,320,8.09,1.164,10.4,102.7226,6.249,7.26,29.3,0,110.1,13.17,7.02,282.0
"2016-02-15 00:51:30",1375234,10.17,318.2,8.09,1.44,12.2,102.7235,6.251,7.432,29.5,0,110.1,13.17,7.03,280.2
"2016-02-15 00:52:00",1375235,11.09,325.7,7.155,1.583,13.35,102.7226,6.249,7.485,29.52,0,110,13.16,7.02,287.7
"2016-02-15 00:52:30",1375236,11.35,328.4,6.999,1.274,13.72,102.7227,6.249,7.479,29.58,0,110.1,13.16,7.02,290.4
"2016-02-15 00:53:00",1375237,10.75,335.5,7.622,1.356,13.63,102.7201,6.243,7.5,29.53,0,110.1,13.16,7.02,297.5
"2016-02-15 00:53:30",1375238,11.21,327.8,7.588,1.5,13.36,102.7199,6.242,7.499,29.64,0,110.1,13.16,7.02,289.8
"2016-02-15 00:54:00",1375239,11.96,328.6,6.936,1.333,12.99,102.7156,6.231,7.499,29.59,0,110.1,13.16,7.00,290.6
"2016-02-15 00:54:30",1375240,11.44,336.3,7.628,1.357,13.13,102.7148,6.229,7.47,29.5,0,110.1,13.16,7.00,298.3
"2016-02-15 00:55:00",1375241,11.21,333.9,6.778,1.299,12.63,102.7177,6.236,7.463,29.52,0,110.1,13.16,7.01,295.9
"2016-02-15 00:55:30",1375242,8.99,319.1,7.593,1.183,9.96,102.7171,6.235,7.29,29.41,0,110.1,13.16,7.01,281.1
"2016-02-15 00:56:00",1375243,8.44,324.7,5.684,0.952,10.39,102.7175,6.236,7.264,29.49,0,110,13.16,7.01,286.7
"2016-02-15 00:56:30",1375244,8.66,325,6.479,1.389,10.72,102.7163,6.233,7.335,29.61,0,110,13.16,7.01,287.0
"2016-02-15 00:57:00",1375245,9.84,328.8,7.404,1.336,12.91,102.7187,6.239,7.467,29.68,0,110,13.17,7.01,290.8
"2016-02-15 00:57:30",1375246,10.31,323,6.979,1.484,12.88,102.7187,6.239,7.486,30.13,0,110,13.18,7.01,285.0
"2016-02-15 00:58:00",1375247,11.08,327.1,7.894,1.422,13.02,102.7116,6.221,7.421,29.92,0,110.1,13.18,6.99,289.1
"2016-02-15 00:58:30",1375248,12.07,328.8,9.24,1.426,12.51,102.7069,6.209,7.48,30.19,0,110.1,13.18,6.98,290.8
"2016-02-15 00:59:00",1375249,12.06,319.8,6.533,1.563,12.58,102.7046,6.203,7.452,30.7,0,110,13.18,6.98,281.8
"2016-02-15 00:59:30",1375250,10.53,319.4,6.789,1.422,10.92,102.7063,6.207,7.342,30.61,0,110,13.18,6.98,281.4
"2016-02-15 01:00:00",1375251,10.08,328.3,7.013,1.669,11.78,102.7075,6.21,7.36,30.2,0,110,13.18,6.98,290.3
"2016-02-15 01:00:30",1375252,8.93,332,7.86,1.6,12.12,102.7084,6.212,7.39,29.89,0,110,13.18,6.99,294.0
"2016-02-15 01:01:00",1375253,10.14,329.5,7.93,1.435,12.99,102.7055,6.205,7.395,30.07,0,110,13.18,6.98,291.5
"2016-02-15 01:01:30",1375254,8.7,331.6,7.357,1.393,11.02,102.703,6.199,7.284,29.93,0,110,13.18,6.97,293.6
"2016-02-15 01:02:00",1375255,8.7,332.6,7.334,1.292,11.67,102.6963,6.181,7.359,29.94,0,110,13.18,6.96,294.6
"2016-02-15 01:02:30",1375256,7.918,327.5,8.59,1.204,10.79,102.6943,6.177,7.334,29.98,0,110,13.18,6.95,289.5
"2016-02-15 01:03:00",1375257,8.12,332.5,8.53,1.462,11.34,102.6918,6.17,7.313,29.71,0,110,13.18,6.94,294.5
"2016-02-15 01:03:30",1375258,8.52,332.2,7.529,1.382,13.28,102.6879,6.16,7.406,29.79,0,110,13.18,6.93,294.2
"2016-02-15 01:04:00",1375259,8.18,332.2,6.874,1.47,12.13,102.6825,6.146,7.347,29.95,0,110,13.18,6.92,294.2
"2016-02-15 01:04:30",1375260,7.823,330.9,6.149,1.338,10.77,102.6782,6.135,7.234,29.75,0,110.1,13.18,6.91,292.9
"2016-02-15 01:05:00",1375261,8.16,332.3,8.07,1.459,11.8,102.678,6.135,7.334,29.82,0,110,13.18,6.91,294.3
"2016-02-15 01:05:30",1375262,8.2,326.3,6.673,1.12,10.42,102.678,6.135,7.312,29.94,0,110,13.18,6.91,288.3
"2016-02-15 01:06:00",1375263,9.21,325,10.63,1.336,12,102.678,6.135,7.312,29.91,0,110,13.18,6.91,287.0
"2016-02-15 01:06:30",1375264,9.17,324.8,8.61,1.483,12.45,102.678,6.135,7.358,30.43,0,110,13.18,6.91,286.8
"2016-02-15 01:07:00",1375265,7.978,326.2,7.121,1.733,11.53,102.678,6.135,7.273,30.59,0,110,13.18,6.91,288.2
"2016-02-15 01:07:30",1375266,8.67,328.8,8.95,1.096,11.59,102.678,6.135,7.312,30.3,0,110,13.18,6.91,290.8
"2016-02-15 01:08:00",1375267,9.57,330.6,7.41,1.366,12.12,102.678,6.135,7.312,30.33,0,110,13.18,6.91,292.6
"2016-02-15 01:08:30",1375268,8.03,329.5,10.29,1.307,11.19,102.678,6.135,7.234,30.71,0,110,13.18,6.91,291.5
"2016-02-15 01:09:00",1375269,7.651,336.3,6.81,1.429,12.34,102.6765,6.131,7.379,30.75,0,110,13.18,6.90,298.3
"2016-02-15 01:09:30",1375270,7.103,338.5,8.35,1.309,11.3,102.6717,6.119,7.31,30.81,0,110,13.18,6.89,300.5
"2016-02-15 01:10:00",1375271,7.717,340.9,7.311,1.226,11.83,102.6655,6.103,7.253,30.21,0,110,13.18,6.88,302.9
"2016-02-15 01:10:30",1375272,7.22,338.6,7.364,1.518,10.87,102.6604,6.09,7.213,30.17,0,110,13.18,6.86,300.6
"2016-02-15 01:11:00",1375273,7.679,340.4,6.938,1.422,11.86,102.6542,6.074,7.375,30.59,0,110,13.18,6.85,302.4
"2016-02-15 01:11:30",1375274,7.569,343.9,8.18,1.55,12.16,102.6458,6.052,7.293,30.53,0,110,13.18,6.83,305.9
"2016-02-15 01:12:00",1375275,7.523,344.4,7.515,1.452,12.18,102.6452,6.051,7.322,30.67,0,110,13.18,6.82,306.4
"2016-02-15 01:12:30",1375276,6.85,349.9,7.639,1.407,11.25,102.6441,6.048,7.168,30.3,0,110,13.18,6.82,311.9
"2016-02-15 01:13:00",1375277,5.455,343.9,3.895,0.394,9.29,102.6441,6.048,7.156,29.85,0,110,13.23,6.82,305.9
"2016-02-15 01:13:30",1375278,6.962,346.3,7.217,1.575,11.86,102.6441,6.048,7.234,29.9,0,110,13.18,6.82,308.3
"2016-02-15 01:14:00",1375279,7.085,345.1,7.437,1.326,11.71,102.6441,6.048,7.313,30.1,0,110,13.18,6.82,307.1
"2016-02-15 01:14:30",1375280,7.922,345.5,8.14,1.372,11.7,102.6441,6.048,7.222,30.21,0,110,13.19,6.82,307.5
"2016-02-15 01:15:00",1375281,8.32,349.4,7.65,1.47,11.96,102.6441,6.048,7.236,30.03,0,110,13.19,6.82,311.4
"2016-02-15 01:15:30",1375282,8.05,341.1,6.584,1.267,10.87,102.6441,6.048,7.155,29.93,0,110,13.19,6.82,303.1
"2016-02-15 01:16:00",1375283,8.45,344.8,7.717,1.614,10.67,102.6441,6.048,7.149,30.03,0,110,13.19,6.82,306.8
"2016-02-15 01:16:30",1375284,9.41,354.6,7.67,1.339,12.41,102.6441,6.048,7.317,30.03,0,110,13.19,6.82,316.6
"2016-02-15 01:17:00",1375285,9.5,348.2,8.7,1.363,12.25,102.6441,6.048,7.267,29.97,0,110,13.19,6.82,310.2
"2016-02-15 01:17:30",1375286,10.31,350.9,8.22,1.571,12.56,102.6441,6.048,7.258,30.03,0,110,13.19,6.82,312.9
"2016-02-15 01:18:00",1375287,8.06,354.4,6.696,1.715,12.34,102.6435,6.047,7.244,30.12,0,110,13.19,6.82,316.4
"2016-02-15 01:18:30",1375288,5.44,2.37,6.747,2.155,10.84,102.6438,6.047,7.197,30.05,0,110,13.19,6.82,324.4
"2016-02-15 01:19:00",1375289,7.554,356.3,8.53,1.609,11.08,102.6444,6.049,7.154,30.07,0,110,13.19,6.82,318.3
"2016-02-15 01:19:30",1375290,8.19,351.7,7.068,1.443,11.61,102.6444,6.049,7.288,30.3,0,110,13.19,6.82,313.7
"2016-02-15 01:20:00",1375291,8.62,354.6,7.657,1.288,12.11,102.6444,6.049,7.206,30.23,0,110,13.19,6.82,316.6
"2016-02-15 01:20:30",1375292,10.86,345.5,7.256,1.375,12.88,102.6449,6.05,7.278,30.13,0,110,13.19,6.82,307.5
"2016-02-15 01:21:00",1375293,10.9,350.5,8.81,1.492,11.82,102.6447,6.05,7.231,30.21,0,110,13.19,6.82,312.5
"2016-02-15 01:21:30",1375294,11.89,352.9,8.93,1.68,12.45,102.6467,6.055,7.263,30.35,0,110,13.19,6.83,314.9
"2016-02-15 01:22:00",1375295,9.79,352.6,8.56,1.674,11.69,102.647,6.056,7.232,30.34,0,110,13.19,6.83,314.6
"2016-02-15 01:22:30",1375296,10.02,356.1,6.807,1.387,12.24,102.6499,6.063,7.235,30.35,0,110,13.19,6.84,318.1
"2016-02-15 01:23:00",1375297,7.824,0.262,9.32,2.128,10.74,102.6499,6.063,7.203,30.44,0,110,13.19,6.84,322.3
"2016-02-15 01:23:30",1375298,12.6,352.5,7.986,1.673,12.54,102.6514,6.067,7.257,30.59,0,110,13.19,6.84,314.5
"2016-02-15 01:24:00",1375299,14.13,352.8,8.04,1.487,13.37,102.6506,6.065,7.301,29.89,0,110,13.19,6.84,314.8
"2016-02-15 01:24:30",1375300,11.34,357.1,8.39,2.135,13.05,102.6506,6.065,7.297,29.96,0,110,13.19,6.84,319.1
"2016-02-15 01:25:00",1375301,9.91,0.602,6.909,2.109,12.74,102.6541,6.074,7.296,30.34,0,110,13.18,6.85,322.6
"2016-02-15 01:25:30",1375302,9.66,1.887,6.788,2.28,12.26,102.6547,6.075,7.26,30.53,0,110,13.18,6.85,323.9
"2016-02-15 01:26:00",1375303,12.56,356.3,7.991,1.707,11.77,102.657,6.081,7.213,30.06,0,110,13.18,6.85,318.3
"2016-02-15 01:26:30",1375304,11.78,349.4,7.358,1.014,9.76,102.6584,6.085,7.088,30.11,0,110,13.18,6.86,311.4
"2016-02-15 01:27:00",1375305,13.49,355.1,7.321,1.573,11.95,102.6609,6.091,7.179,30.43,0,110,13.18,6.86,317.1
"2016-02-15 01:27:30",1375306,12.21,349.7,7.559,1.566,12.21,102.6621,6.094,7.257,30.49,0,110,13.18,6.87,311.7
"2016-02-15 01:28:00",1375307,10.77,343,8.5,1.337,12.97,102.6633,6.097,7.297,30.67,0,110,13.18,6.87,305.0
"2016-02-15 01:28:30",1375308,10.17,341.6,9.02,1.405,12.78,102.6634,6.098,7.293,30.83,0,110,13.18,6.87,303.6
"2016-02-15 01:29:00",1375309,10.85,344.4,8.92,1.465,13.22,102.6617,6.093,7.267,30.79,0,110,13.18,6.87,306.4
"2016-02-15 01:29:30",1375310,10.43,355.7,7.184,1.345,12.41,102.6569,6.081,7.288,30.95,0,110,13.18,6.85,317.7
"2016-02-15 01:30:00",1375311,10.15,353.3,8.3,1.627,12.01,102.6515,6.067,7.259,31.11,0,110,13.18,6.84,315.3
"2016-02-15 01:30:30",1375312,8.77,347.5,2.671,0.652,8.48,102.6504,6.064,7.03,30.92,0,110,13.19,6.84,309.5
"2016-02-15 01:31:00",1375313,8.87,345.3,8.01,1.43,10.09,102.6496,6.062,7.166,31.09,0,110,13.19,6.84,307.3
"2016-02-15 01:31:30",1375314,12.38,350.7,7.76,1.69,13.11,102.642,6.043,7.273,31.11,0,110,13.19,6.82,312.7
"2016-02-15 01:32:00",1375315,11.98,350.6,8.34,1.617,13.3,102.6409,6.04,7.289,31.2,0,110,13.19,6.81,312.6
"2016-02-15 01:32:30",1375316,12.65,351.6,7.532,2.6,13.04,102.6418,6.042,7.243,31.03,0,110,13.19,6.82,313.6
"2016-02-15 01:33:00",1375317,12.94,351.4,7.715,1.679,12.74,102.6421,6.043,7.24,30.85,0,110,13.19,6.82,313.4
"2016-02-15 01:33:30",1375318,11.21,358.9,7.685,1.675,12.59,102.6376,6.032,7.231,30.88,0,110,13.19,6.80,320.9
"2016-02-15 01:34:00",1375319,11.03,358.8,6.315,1.562,12.34,102.6277,6.006,7.217,31.12,0,110,13.19,6.78,320.8
"2016-02-15 01:34:30",1375320,10.72,355.6,9.04,1.272,11.56,102.6274,6.006,7.165,31.09,0,110,13.19,6.78,317.6
"2016-02-15 01:35:00",1375321,10.98,343.7,5.329,1.201,9.45,102.6189,5.984,7.03,31.09,0,110,13.19,6.76,305.7
"2016-02-15 01:35:30",1375322,11.45,353.9,8.99,1.456,12.03,102.6113,5.965,7.151,31.36,0,110,13.19,6.74,315.9
"2016-02-15 01:36:00",1375323,10.89,0.557,8.07,1.674,12.84,102.6111,5.964,7.162,31.18,0,110,13.19,6.74,322.6
"2016-02-15 01:36:30",1375324,10.07,4.68,7.085,1.779,12.85,102.6108,5.963,7.198,30.82,0,110,13.19,6.74,326.7
"2016-02-15 01:37:00",1375325,10.01,3.63,7.412,1.336,12.48,102.6108,5.963,7.153,30.68,0,110,13.19,6.74,325.6
"2016-02-15 01:37:30",1375326,10.72,0.608,7.934,2.53,12.14,102.6111,5.964,7.179,30.99,0,110,13.19,6.74,322.6
"2016-02-15 01:38:00",1375327,8.89,356.8,10.47,1.769,10.63,102.6111,5.964,7.061,30.66,0,110,13.19,6.74,318.8
"2016-02-15 01:38:30",1375328,10.96,356.5,6.998,1.31,11.93,102.6111,5.964,7.126,30.6,0,110,13.19,6.74,318.5
"2016-02-15 01:39:00",1375329,8.83,1.739,8.98,2.308,12.11,102.6111,5.964,7.132,30.61,0,110,13.2,6.74,323.7
"2016-02-15 01:39:30",1375330,6.899,5.308,7.779,1.287,11.7,102.6111,5.964,7.073,30.78,0,110,13.2,6.74,327.3
"2016-02-15 01:40:00",1375331,6.101,7.436,7.179,1.384,11.34,102.6144,5.972,7.14,30.8,0,110,13.2,6.75,329.4
"2016-02-15 01:40:30",1375332,7.019,3.783,7.654,1.9,11.18,102.6201,5.987,7.027,30.58,0,110,13.2,6.76,325.8
"2016-02-15 01:41:00",1375333,6.787,2.709,9.35,1.683,11.2,102.6274,6.006,7.031,30.58,0,110,13.2,6.78,324.7
"2016-02-15 01:41:30",1375334,8.72,2.092,6.561,2.893,12.53,102.6294,6.011,7.176,30.74,0,110,13.2,6.78,324.1
"2016-02-15 01:42:00",1375335,5.696,6.085,9.05,1.736,11.65,102.6317,6.017,7.11,30.66,0,110,13.19,6.79,328.1
"2016-02-15 01:42:30",1375336,5.148,4.898,6.856,1.488,10.74,102.6354,6.026,7.053,30.64,0,110,13.19,6.80,326.9
"2016-02-15 01:43:00",1375337,6.196,4.922,7.511,2.089,11.47,102.6362,6.028,7.134,30.77,0,110,13.19,6.80,326.9
"2016-02-15 01:43:30",1375338,8.63,359.9,7.831,1.533,11.56,102.6348,6.024,7.108,30.7,0,110,13.19,6.80,321.9
"2016-02-15 01:44:00",1375339,7.824,358.5,9.32,1.612,11.44,102.6351,6.025,7.09,30.58,0,110,13.19,6.80,320.5
"2016-02-15 01:44:30",1375340,7.808,2.758,7.372,1.893,12.5,102.6382,6.033,7.179,30.6,0,110,13.19,6.81,324.8
"2016-02-15 01:45:00",1375341,5.364,4.434,7.461,1.583,11.7,102.6365,6.029,7.184,30.49,0,110,13.19,6.80,326.4
"2016-02-15 01:45:30",1375342,7.428,358.8,10.82,1.913,10.69,102.6382,6.033,7.06,30.07,0,110,13.19,6.81,320.8
"2016-02-15 01:46:00",1375343,7.387,358.4,8.58,2.135,10.68,102.6396,6.037,7.068,30.12,0,110,13.19,6.81,320.4
"2016-02-15 01:46:30",1375344,6.888,13.81,10.57,1.912,11.62,102.643,6.045,7.165,30.18,0,110,13.19,6.82,335.8
"2016-02-15 01:47:00",1375345,7.972,9.11,8.46,1.685,12.05,102.6444,6.049,7.097,30.21,0,110,13.19,6.82,331.1
"2016-02-15 01:47:30",1375346,6.452,4.827,10,2.939,11.9,102.6447,6.05,7.182,30.32,0,110,13.2,6.82,326.8
"2016-02-15 01:48:00",1375347,4.361,18.55,5.515,1.174,10.69,102.645,6.05,7.131,30.26,0,110,13.2,6.82,340.5
"2016-02-15 01:48:30",1375348,4.586,19.03,7.95,1.871,10.18,102.645,6.05,7.062,30.22,0,110,13.2,6.82,341.0
"2016-02-15 01:49:00",1375349,6.342,25.6,7.118,1.548,10.58,102.645,6.05,7.095,30.29,0,110,13.2,6.82,347.6